TimeEDT,TemperatureF,Dew PointF,Humidity,Sea Level PressureIn,VisibilityMPH,Wind Direction,Wind SpeedMPH,Gust SpeedMPH,PrecipitationIn,Events,Conditions,WindDirDegrees,DateUTC
12:53 AM,30.9,19.0,61,29.60,10.0,East,11.5,-,N/A,,Overcast,100,2013-03-25 04:53:00
1:53 AM,30.9,19.0,61,29.58,10.0,East,10.4,-,N/A,,Overcast,100,2013-03-25 05:53:00
2:53 AM,30.9,19.0,61,29.56,10.0,East,10.4,-,N/A,,Overcast,100,2013-03-25 06:53:00
3:53 AM,30.9,19.0,61,29.55,10.0,East,8.1,-,N/A,,Overcast,100,2013-03-25 07:53:00
4:31 AM,30.0,21.0,69,29.52,2.5,SE,4.6,-,0.00,Snow,Light Snow,140,2013-03-25 08:31:00
4:42 AM,28.9,21.9,75,29.51,1.2,SE,5.8,-,0.00,Snow,Light Snow,130,2013-03-25 08:42:00
4:51 AM,28.4,23.0,80,29.52,0.8,ESE,6.9,-,0.00,Snow,Light Snow,120,2013-03-25 08:51:00
4:52 AM,28.9,23.0,78,29.56,0.8,ESE,6.9,-,0.00,Snow,Light Snow,120,2013-03-25 08:52:00
5:08 AM,28.0,24.1,85,29.51,0.8,East,4.6,-,0.02,Snow,Light Snow,100,2013-03-25 09:08:00
5:53 AM,28.0,24.1,85,29.56,0.8,East,6.9,-,0.06,Snow,Light Snow,80,2013-03-25 09:53:00
6:02 AM,28.0,24.1,85,29.51,1.0,ENE,5.8,-,0.01,Snow,Light Snow,70,2013-03-25 10:02:00
6:15 AM,28.9,24.1,82,29.51,1.2,East,8.1,-,0.01,Snow,Light Snow,80,2013-03-25 10:15:00
6:43 AM,28.9,24.1,82,29.50,2.0,ENE,9.2,-,0.01,Snow,Light Snow,70,2013-03-25 10:43:00
6:53 AM,28.9,24.1,82,29.55,1.5,East,8.1,-,0.01,Snow,Light Snow,90,2013-03-25 10:53:00
7:47 AM,28.4,24.8,86,29.49,2.5,East,9.2,-,0.01,Snow,Light Snow,90,2013-03-25 11:47:00
7:53 AM,28.9,24.1,82,29.54,3.0,East,8.1,-,0.01,Snow,Light Snow,90,2013-03-25 11:53:00
8:00 AM,28.9,24.1,82,29.49,2.0,East,6.9,-,0.00,Snow,Light Snow,80,2013-03-25 12:00:00
8:06 AM,28.9,24.1,82,29.49,1.8,East,8.1,-,0.00,Snow,Light Snow,90,2013-03-25 12:06:00
8:42 AM,28.9,24.1,82,29.50,1.0,East,11.5,-,0.00,Snow,Light Snow,90,2013-03-25 12:42:00
8:53 AM,28.9,24.1,82,29.55,1.2,East,6.9,-,0.00,Snow,Light Snow,90,2013-03-25 12:53:00
9:17 AM,28.9,24.1,82,29.49,1.2,East,10.4,-,0.00,Snow,Light Snow,90,2013-03-25 13:17:00
9:41 AM,30.0,24.1,79,29.49,1.0,East,6.9,-,0.00,Snow,Light Snow,90,2013-03-25 13:41:00
9:53 AM,30.0,24.1,79,29.54,1.2,East,10.4,-,0.00,Snow,Light Snow,90,2013-03-25 13:53:00
10:15 AM,30.0,24.1,79,29.49,1.8,East,10.4,-,0.00,Snow,Light Snow,80,2013-03-25 14:15:00
10:37 AM,30.9,24.1,76,29.49,1.5,East,10.4,-,0.00,Snow,Light Snow,80,2013-03-25 14:37:00
10:46 AM,30.9,25.0,79,29.49,1.2,East,10.4,-,0.00,Snow,Light Snow,80,2013-03-25 14:46:00
10:53 AM,30.9,25.0,79,29.54,1.0,East,10.4,-,0.00,Snow,Light Snow,100,2013-03-25 14:53:00
11:53 AM,30.9,25.0,79,29.54,1.5,East,12.7,-,0.01,Snow,Light Snow,100,2013-03-25 15:53:00
12:11 PM,32.0,25.0,75,29.49,2.0,ESE,10.4,-,0.00,Snow,Light Snow,110,2013-03-25 16:11:00
12:19 PM,32.0,25.0,75,29.49,3.0,East,13.8,-,0.00,Snow,Light Snow,80,2013-03-25 16:19:00
12:41 PM,32.0,25.0,75,29.49,2.5,ESE,10.4,-,0.00,Snow,Light Snow,110,2013-03-25 16:41:00
12:53 PM,33.1,24.1,70,29.54,2.5,ESE,10.4,-,0.00,Snow,Light Snow,110,2013-03-25 16:53:00
1:32 PM,34.0,26.1,73,29.50,1.8,ENE,10.4,-,0.00,Snow,Light Snow,70,2013-03-25 17:32:00
1:53 PM,33.1,26.1,75,29.55,1.0,East,10.4,-,0.00,Snow,Light Snow,100,2013-03-25 17:53:00
2:09 PM,33.1,27.0,78,29.49,0.8,ENE,5.8,-,0.00,Snow,Light Snow,70,2013-03-25 18:09:00
2:21 PM,33.1,27.0,78,29.50,0.8,NE,8.1,-,0.00,Snow,Light Snow,50,2013-03-25 18:21:00
2:28 PM,33.1,27.0,78,29.49,0.8,NE,10.4,-,0.00,Snow,Light Snow,50,2013-03-25 18:28:00
2:42 PM,33.1,26.1,75,29.49,1.0,ENE,8.1,-,0.00,Snow,Light Snow,60,2013-03-25 18:42:00
2:53 PM,34.0,26.1,73,29.54,1.2,NE,10.4,-,0.00,Snow,Light Snow,50,2013-03-25 18:53:00
3:07 PM,34.0,27.0,75,29.49,1.5,East,6.9,-,0.00,Snow,Light Snow,80,2013-03-25 19:07:00
3:17 PM,34.0,27.0,75,29.49,1.8,ENE,8.1,-,0.00,Snow,Light Snow,60,2013-03-25 19:17:00
3:24 PM,34.0,26.1,73,29.49,2.0,East,8.1,-,0.00,Snow,Light Snow,80,2013-03-25 19:24:00
3:34 PM,34.0,26.1,73,29.49,1.8,ENE,9.2,-,0.00,Snow,Light Snow,70,2013-03-25 19:34:00
3:46 PM,34.0,26.1,73,29.50,2.0,ENE,10.4,-,0.00,Snow,Light Snow,70,2013-03-25 19:46:00
3:53 PM,34.0,26.1,73,29.55,1.5,ENE,10.4,-,0.00,Snow,Light Snow,70,2013-03-25 19:53:00
4:06 PM,34.0,27.0,75,29.50,1.5,East,6.9,-,0.00,Snow,Light Snow,80,2013-03-25 20:06:00
4:19 PM,33.1,26.1,75,29.51,2.0,ENE,10.4,-,0.00,Snow,Light Snow,60,2013-03-25 20:19:00
4:21 PM,33.1,26.1,75,29.51,1.8,ENE,9.2,-,0.00,Snow,Light Snow,70,2013-03-25 20:21:00
4:29 PM,33.1,26.1,75,29.51,2.0,ENE,8.1,-,0.00,Snow,Light Snow,70,2013-03-25 20:29:00
4:39 PM,33.1,27.0,78,29.51,1.5,East,6.9,-,0.00,Snow,Light Snow,90,2013-03-25 20:39:00
4:49 PM,33.8,26.6,75,29.51,1.0,NNE,5.8,-,0.00,Snow,Light Snow,30,2013-03-25 20:49:00
4:53 PM,33.1,27.0,78,29.57,0.5,NE,4.6,-,0.01,Snow,Snow,50,2013-03-25 20:53:00
5:04 PM,33.1,28.0,82,29.52,1.0,ENE,3.5,-,0.00,Snow,Light Snow,70,2013-03-25 21:04:00
5:17 PM,33.1,27.0,78,29.52,2.0,NNE,6.9,-,0.00,Snow,Light Snow,30,2013-03-25 21:17:00
5:20 PM,34.0,26.1,73,29.52,3.0,NE,6.9,-,0.00,Snow,Light Snow,40,2013-03-25 21:20:00
5:53 PM,34.0,25.0,70,29.59,9.0,East,5.8,-,0.00,,Overcast,80,2013-03-25 21:53:00
6:05 PM,33.1,26.1,75,29.54,2.5,NNE,6.9,-,0.00,Snow,Light Snow,20,2013-03-25 22:05:00
6:11 PM,33.1,26.1,75,29.55,0.8,NNE,5.8,-,0.00,Snow,Light Snow,20,2013-03-25 22:11:00
6:20 PM,32.0,27.0,82,29.55,0.5,NE,4.6,-,0.00,Snow,Snow,50,2013-03-25 22:20:00
6:27 PM,32.0,28.0,85,29.56,0.8,NNE,3.5,-,0.01,Snow,Light Snow,20,2013-03-25 22:27:00
6:29 PM,32.0,27.0,82,29.56,1.0,NNE,5.8,-,0.01,Snow,Light Snow,30,2013-03-25 22:29:00
6:40 PM,32.0,27.0,82,29.56,2.0,North,5.8,-,0.01,Snow,Light Snow,10,2013-03-25 22:40:00
6:51 PM,32.0,26.6,80,29.57,1.2,North,5.8,-,0.01,Snow,Light Snow,10,2013-03-25 22:51:00
6:53 PM,32.0,27.0,82,29.62,1.2,NNE,5.8,-,0.01,Snow,Light Snow,20,2013-03-25 22:53:00
7:01 PM,32.0,27.0,82,29.57,1.0,NNE,6.9,-,0.00,Snow,Light Snow,20,2013-03-25 23:01:00
7:21 PM,32.0,27.0,82,29.59,2.0,North,4.6,-,0.00,Snow,Light Snow,10,2013-03-25 23:21:00
7:23 PM,32.0,27.0,82,29.59,1.8,Variable,6.9,-,0.00,Snow,Light Snow,0,2013-03-25 23:23:00
7:30 PM,32.0,26.1,79,29.59,1.5,NNE,11.5,16.1,0.00,Snow,Light Snow,30,2013-03-25 23:30:00
7:34 PM,32.0,26.1,79,29.59,2.0,NNE,9.2,-,0.00,Snow,Light Snow,30,2013-03-25 23:34:00
7:40 PM,32.0,26.1,79,29.59,3.0,NNE,6.9,-,0.00,Snow,Light Snow,20,2013-03-25 23:40:00
7:53 PM,32.0,26.1,79,29.65,4.0,NNE,6.9,-,0.00,Snow,Light Snow,20,2013-03-25 23:53:00
8:30 PM,30.9,26.1,82,29.61,2.0,NNE,4.6,-,0.00,Snow,Light Snow,20,2013-03-26 00:30:00
8:49 PM,30.2,26.6,86,29.62,2.5,North,5.8,-,0.00,Snow,Light Snow,350,2013-03-26 00:49:00
8:53 PM,30.9,27.0,85,29.68,2.0,North,5.8,-,0.00,Snow,Light Snow,360,2013-03-26 00:53:00
9:03 PM,30.9,27.0,85,29.63,3.0,NNW,5.8,-,0.00,Snow,Light Snow,340,2013-03-26 01:03:00
9:38 PM,30.9,26.1,82,29.64,3.0,North,8.1,-,0.00,Snow,Light Snow,360,2013-03-26 01:38:00
9:53 PM,30.9,25.0,79,29.70,6.0,North,4.6,-,0.00,Snow,Light Snow,10,2013-03-26 01:53:00
9:57 PM,30.9,25.0,79,29.64,7.0,North,4.6,-,0.00,,Overcast,360,2013-03-26 01:57:00
10:51 PM,30.2,24.8,80,29.65,10.0,North,5.8,-,0.00,,Overcast,360,2013-03-26 02:51:00
10:53 PM,30.9,24.1,76,29.70,10.0,North,5.8,-,0.00,,Overcast,350,2013-03-26 02:53:00
11:36 PM,30.0,24.1,79,29.65,10.0,Calm,Calm,-,N/A,,Scattered Clouds,0,2013-03-26 03:36:00
11:53 PM,28.9,24.1,82,29.72,10.0,WNW,3.5,-,N/A,,Partly Cloudy,300,2013-03-26 03:53:00